Regional Weather Roundup
Issued by NWS

Home | Current Version | Previous Version | Text Only | Print | Product List | Glossary On
Versions: 1 2 3 4 5 6 7 8 9 10 11 12 13 14 15 16 17 18 19 20 21 22 23 24 25 26 27 28 29 30 31 32 33 34 35 36 37 38 39 40 41 42 43 44 45 46 47 48 49 50
000
ASUS43 KDTX 060410
RWRMI
MICHIGAN HOURLY REGIONAL WEATHER ROUNDUP
NATIONAL WEATHER SERVICE DETROIT/PONTIAC MI
1200 AM EDT MON JUL 06 2015

NOTE: "FAIR" INDICATES FEW OR NO CLOUDS BELOW 12,000 FEET WITH NO
SIGNIFICANT WEATHER AND/OR OBSTRUCTION TO VISIBILITY.

MIZ047>049-052>055-059>063-066>070-074>076-081>083-060500-
SOUTHEAST LOWER MICHIGAN

CITY           SKY/WX    TMP DP  RH WIND       PRES   REMARKS
ADRIAN         CLEAR     65  59  81 CALM      30.10R
ALMA           PTCLDY    69  64  82 SE3       30.06S
ANN ARBOR      PTCLDY    58  57  97 CALM      30.09F FOG
BAD AXE        CLEAR     67  56  69 S8        30.07F
CARO           CLEAR     63  59  88 CALM      30.06F
DETROIT CITY   CLEAR     67  55  65 S3        30.09S
DETROIT        PTCLDY    67  60  78 CALM      30.10S
FLINT          PTCLDY    68  57  68 S5        30.08F
GROSSE ILE     PTCLDY    64  61  88 CALM      30.08S
HILLSDALE      CLEAR     67  61  80 SE5       30.09F
HOWELL         CLEAR     63  57  82 CALM      30.08F

CITY           SKY/WX    TMP DP  RH WIND       PRES   REMARKS
JACKSON        CLEAR     64  59  83 SE6       30.08F
LAMBERTVILLE   PTCLDY    64  60  88 CALM      30.10R FOG
LANSING        PTCLDY    70  56  61 S8        30.07F
LAPEER         FAIR      62  57  82 SE3       30.08F
MASON          PTCLDY    62  56  82 S6        30.08F
MONROE         PTCLDY    63  61  94 CALM      30.09R
MT. CLEMENS    PTCLDY    66  59  78 S2        30.07F
PONTIAC        MOCLDY    64  57  78 VRB3      30.09S
PORT HOPE        N/A     70  60  70 VRB5      30.05F
PORT HURON     MOCLDY    59  59 100 CALM      30.10R FOG
TRI CITIES     PTCLDY    72  61  68 S7        30.06S
MIDLAND        FAIR      64  62  93 CALM      30.04F
TROY           CLEAR     70  55  58 S5        30.11S
SAGINAW HB     PTCLDY    68  61  77 S6        30.06S
$$
MIZ043>046-050>051-056>058-064>065-071>073-077>080-060500-
SOUTHWEST LOWER MICHIGAN

CITY           SKY/WX    TMP DP  RH WIND       PRES   REMARKS
BATTLE CREEK   CLEAR     71  61  70 S5        30.07F
BENTON HARBOR  CLEAR     64  61  90 SE3       30.03F
BIG RAPIDS     CLEAR     64  60  87 CALM      30.04F
COLDWATER      PTCLDY    67  59  73 SE3       30.08S
FREMONT        FAIR      63  60  92 SE5       30.03F
HOLLAND        CLEAR     66  61  84 SE3       30.04F
GRAND RAPIDS   CLEAR     67  62  84 S6        30.05F
IONIA          FAIR      70  63  77 S8        30.05F
KALAMAZOO      CLEAR     70  61  73 S3        30.07S
LUDINGTON      CLEAR     71  61  70 S3        30.01F
MARSHALL       PTCLDY    68  60  74 SE6       30.07F
MOUNT PLEASANT CLEAR     69  62  77 CALM      30.04F
MUSKEGON       CLEAR     66  56  70 SE8       30.02F
SOUTH HAVEN    CLEAR     63  60  89 CALM      30.04F
$$
MIZ016>042-060500-
NORTHERN LOWER MICHIGAN

CITY           SKY/WX    TMP DP  RH WIND       PRES   REMARKS
ALPENA         CLEAR     61  56  83 CALM      30.04F
BEAVER ISLAND  CLEAR     68  57  67 SW10G17   29.97F
BELLAIRE       CLEAR     65  62  91 CALM      30.00F FOG
CADILLAC       CLEAR     66  61  84 S5        30.04F
CHARLEVOIX     CLEAR     69  61  76 SE3       30.01F
FRANKFORT      CLEAR     71  55  55 CALM      29.99F
GAYLORD        CLEAR     70  63  78 S9        30.04S
GRAYLING       CLEAR     61  59  91 CALM      30.05S
HARBOR SPRINGS CLEAR     63  61  91 CALM      30.00F
HOUGHTON LAKE  CLEAR     68  61  78 S7        30.05F
MANISTEE       CLEAR     64  55  72 E3        30.00F
OSCODA         CLEAR     62  57  85 CALM      30.04F
PELLSTON       CLEAR     61  59  93 CALM      30.00F
ROGERS CITY    CLEAR     69  63  81 S8        30.02F
TRAVERSE CITY  CLEAR     70  60  70 CALM      29.99F
$$
MIZ007>008-015-060500-
EASTERN UPPER MICHIGAN

CITY           SKY/WX    TMP DP  RH WIND       PRES   REMARKS
KINROSS        PTCLDY    63  59  88 SE6       29.98F
MACKINAC ISLAN CLEAR     66  59  77 W8        29.98F
NEWBERRY       CLEAR     61  57  87 S8G16     29.94F
S. S. MARIE    CLEAR     65  55  70 SE6       29.97F
MUNISING         N/A     69  59  70 S9G18     29.88F
$$
MIZ004>006-011>014-085-060500-
CENTRAL UPPER MICHIGAN

CITY           SKY/WX    TMP DP  RH WIND       PRES   REMARKS
MANISTIQUE     CLEAR     60  56  85 SW6       29.95S
ESCANABA       CLEAR     66  61  82 S7        29.92F
MENOMINEE      CLEAR     70  59  68 SW7       29.92F
SAWYER-GWINN   PTCLDY    68  61  78 S14       29.90F
$$
MIZ001>003-009>011-084-060500-
WESTERN UPPER MICHIGAN

CITY           SKY/WX    TMP DP  RH WIND       PRES   REMARKS
IRON MOUNTAIN  CLEAR     68  63  84 S7        29.90F
HOUGHTON       MOCLDY    75  60  59 S8        29.82S
COPPER HARBOR    N/A     71  57  61 SW9G18    29.79S
IRONWOOD       MOCLDY    75  64  69 S14G26    29.80F
$$

ABBREVIATIONS USED IN REMARKS
   TC - TEMPERATURE IN CELSIUS
  WCI - WIND CHILL INDEX
   HX - HEAT INDEX
  VSB - VISIBILITY




USA.gov is the U.S. government's official web portal to all federal, state and local government web resources and services.